Погода в Хачемзии

Россия / Республика Адыгея     44°57′11″N   40°18′52″E
темп.,
°C
ветер,
м/с
пор.,
м/с
влажн.,
%
обл.,
%
осадки,
мм/ч
давл.,
гПа
погр.,
м
6 марта, сб
сб600:00+3ююз12770 0.0 101822
03:00+2ююв22614 0.0 101822
06:00+2ю125674 0.0 101725
09:00+8юз3164869 0.0 1016686
12:00+14юз101535100 0.0 1015985
15:00+13юз101643100 0.0 10131153
18:00+10зюз81755100 0.0 1013779
21:00+7зсз81290100 1.4 1016725
7 марта, вс
вс700:000сз71198100 6.6 1019633
03:00−1сз498399 8.3 1023540
06:00−3сз358314 0.0 1025140
09:00−1сз23657 0.0 1026586
12:00+1зсз23480 0.0 10251191
15:00+3з33460 0.0 10231456
18:00+1зюз23650 0.0 102344
21:00−1юз35720 0.0 1024116
8 марта, пн
пн800:00−2юз36770 0.0 1023158
03:00−2юз37773 0.0 1022243
06:00−2ююз48780 0.0 1021272
09:00+2зюз610570 0.0 1020935
12:00+5з710470 0.0 10181542
15:00+6з710511 0.0 10171548
18:00+2зюз5117252 0.0 1016408
21:000юз5127743 0.0 1018338
9 марта, вт
вт900:00−1юз411760 0.0 1017330
03:00−1юз3117834 0.0 1017413
06:000зюз41380100 0.0 1017556
09:00+2зюз81388100 0.5 1017836
12:00+1зюз71296100 4.0 1017559
15:00+2з6997100 6.8 1018560
18:00+2з388499 1.8 1020326
21:00−2зсз237477 1.8 102348
10 марта, ср
ср1000:00−3юз22760 0.0 102321
03:00−2юз228010 0.0 102323
06:00−2ююз228475 0.0 102322
09:000ю127167 0.0 1024270
12:00+3в1161100 0.0 1022946
15:00+4св225775 0.0 10201112
18:00+1всв3376100 0.0 101973
21:00−1всв3781100 0.0 1019201